H1 CPF 2 NER 2021 7 22 9 203 01 glonass134 H2 1407501 9134 40315 2021 7 22 0 0 0 2021 7 25 23 45 0 900 1 1 0 0 0 1 H9 10 0 59417 0.00000 0 -12629155.964 -2326672.836 -22005844.510 10 0 59417 900.00000 0 -10808329.307 -4400947.252 -22654566.575 10 0 59417 1800.00000 0 -9106702.379 -6639847.156 -22862080.102 10 0 59417 2700.00000 0 -7568438.957 -8990857.416 -22624629.671 10 0 59417 3600.00000 0 -6227836.029 -11394666.230 -21947132.493 10 0 59417 4500.00000 0 -5108063.047 -13787449.646 -20843059.609 10 0 59417 5400.00000 0 -4220386.452 -16103352.990 -19334151.028 10 0 59417 6300.00000 0 -3563909.182 -18277065.658 -17449971.925 10 0 59417 7200.00000 0 -3125833.016 -20246382.214 -15227319.966 10 0 59417 8100.00000 0 -2882229.628 -21954643.913 -12709496.431 10 0 59417 9000.00000 0 -2799285.220 -23352960.243 -9945456.071 10 0 59417 9900.00000 0 -2834964.150 -24402119.483 -6988852.795 10 0 59417 10800.00000 0 -2941019.823 -25074110.592 -3896999.834 10 0 59417 11700.00000 0 -3065267.211 -25353194.986 -729764.396 10 0 59417 12600.00000 0 -3154020.900 -25236485.415 2451582.162 10 0 59417 13500.00000 0 -3154596.162 -24734009.550 5585537.138 10 0 59417 14400.00000 0 -3017768.309 -23868256.940 8611540.593 10 0 59417 15300.00000 0 -2700087.658 -22673229.109 11471129.205 10 0 59417 16200.00000 0 -2165953.570 -21193032.662 14109048.979 10 0 59417 17100.00000 0 -1389361.033 -19480073.736 16474306.854 10 0 59417 18000.00000 0 -355246.746 -17592928.165 18521142.279 10 0 59417 18900.00000 0 939622.063 -15593974.726 20209901.456 10 0 59417 19800.00000 0 2486254.303 -13546888.297 21507798.553 10 0 59417 20700.00000 0 4263555.279 -11514095.517 22389549.930 10 0 59417 21600.00000 0 6238957.871 -9554297.022 22837869.595 10 0 59417 22500.00000 0 8369541.173 -7720157.857 22843816.163 10 0 59417 23400.00000 0 10603593.068 -6056261.152 22406983.885 10 0 59417 24300.00000 0 12882554.868 -4597409.708 21535532.877 10 0 59417 25200.00000 0 15143270.016 -3367346.277 20246056.215 10 0 59417 26100.00000 0 17320445.575 -2377946.515 18563284.438 10 0 59417 27000.00000 0 19349225.704 -1628919.285 16519630.945 10 0 59417 27900.00000 0 21167770.672 -1108028.006 14154584.848 10 0 59417 28800.00000 0 22719733.620 -791825.019 11513961.110 10 0 59417 29700.00000 0 23956530.648 -646869.061 8649020.941 10 0 59417 30600.00000 0 24839307.584 -631375.094 5615478.522 10 0 59417 31500.00000 0 25340518.844 -697226.869 2472413.157 10 0 59417 32400.00000 0 25445049.901 -792266.391 -718891.578 10 0 59417 33300.00000 0 25150834.013 -862761.916 -3896158.002 10 0 59417 34200.00000 0 24468935.588 -855947.910 -6997348.431 10 0 59417 35100.00000 0 23423095.559 -722526.728 -9961897.146 10 0 59417 36000.00000 0 22048757.592 -419023.219 -12731913.926 10 0 59417 36900.00000 0 20391616.550 90110.287 -15253333.387 10 0 59417 37800.00000 0 18505751.406 830730.251 -17476985.762 10 0 59417 38700.00000 0 16451422.716 1817656.149 -19359566.749 10 0 59417 39600.00000 0 14292629.061 3053800.922 -20864486.455 10 0 59417 40500.00000 0 12094526.814 4529815.125 -21962580.613 10 0 59417 41400.00000 0 9920822.870 6224259.984 -22632670.458 10 0 59417 42300.00000 0 7831250.522 8104301.617 -22861961.165 10 0 59417 43200.00000 0 5879234.244 10126896.551 -22646272.388 10 0 59417 44100.00000 0 4109840.387 12240417.914 -21990097.953 10 0 59417 45000.00000 0 2558098.032 14386653.158 -20906495.308 10 0 59417 45900.00000 0 1247757.912 16503089.037 -19416808.597 10 0 59417 46800.00000 0 190538.529 18525387.875 -17550232.390 10 0 59417 47700.00000 0 -614112.160 20389951.609 -15343225.988 10 0 59417 48600.00000 0 -1178732.778 22036466.998 -12838790.848 10 0 59417 49500.00000 0 -1527057.377 23410326.653 -10085625.994 10 0 59417 50400.00000 0 -1692753.017 24464826.030 -7137178.369 10 0 59417 51300.00000 0 -1717741.434 25163046.305 -4050606.759 10 0 59417 52200.00000 0 -1650176.925 25479346.244 -885679.180 10 0 59417 53100.00000 0 -1542166.475 25400402.512 2296375.233 10 0 59417 54000.00000 0 -1447328.334 24925756.587 5434038.381 10 0 59417 54900.00000 0 -1418291.588 24067846.749 8466677.728 10 0 59417 55800.00000 0 -1504241.255 22851524.605 11335701.614 10 0 59417 56700.00000 0 -1748611.342 21313076.655 13985674.462 10 0 59417 57600.00000 0 -2187022.056 19498791.337 16365371.807 10 0 59417 58500.00000 0 -2845547.194 17463130.430 18428756.234 10 0 59417 59400.00000 0 -3739384.324 15266579.531 20135856.758 10 0 59417 60300.00000 0 -4871983.975 12973265.214 21453535.918 10 0 59417 61200.00000 0 -6234675.439 10648436.042 22356130.504 10 0 59417 62100.00000 0 -7806806.682 8355910.039 22825954.035 10 0 59417 63000.00000 0 -9556395.018 6155592.846 22853651.126 10 0 59417 63900.00000 0 -11441264.215 4101168.256 22438396.259 10 0 59417 64800.00000 0 -13410623.722 2238056.124 21587931.895 10 0 59417 65700.00000 0 -15407027.196 601722.159 20318443.525 10 0 59417 66600.00000 0 -17368631.256 -783589.793 18654272.045 10 0 59417 67500.00000 0 -19231662.298 -1905649.497 16627466.794 10 0 59417 68400.00000 0 -20932989.641 -2764522.066 14277185.694 10 0 59417 69300.00000 0 -22412697.732 -3372326.745 11648952.135 10 0 59417 70200.00000 0 -23616549.228 -3752481.853 8793781.437 10 0 59417 71100.00000 0 -24498234.331 -3938466.960 5767192.807 10 0 59417 72000.00000 0 -25021309.956 -3972154.214 2628125.718 10 0 59417 72900.00000 0 -25160744.888 -3901779.730 -562217.813 10 0 59417 73800.00000 0 -24904003.498 -3779641.954 -3741581.483 10 0 59417 74700.00000 0 -24251620.205 -3659626.203 -6847888.190 10 0 59417 75600.00000 0 -23217238.802 -3594662.583 -9820472.679 10 0 59417 76500.00000 0 -21827113.946 -3634227.677 -12601287.063 10 0 59417 77400.00000 0 -20119095.594 -3821998.604 -15136053.393 10 0 59417 78300.00000 0 -18141139.603 -4193761.426 -17375338.840 10 0 59417 79200.00000 0 -15949408.196 -4775664.634 -19275530.975 10 0 59417 80100.00000 0 -13606041.641 -5582893.210 -20799693.081 10 0 59417 81000.00000 0 -11176696.249 -6618820.251 -21918282.472 10 0 59417 81900.00000 0 -8727953.321 -7874672.282 -22609718.090 10 0 59417 82800.00000 0 -6324708.640 -9329722.051 -22860787.064 10 0 59417 83700.00000 0 -4027652.091 -10951999.959 -22666883.603 10 0 59417 84600.00000 0 -1890942.384 -12699493.246 -22032077.128 10 0 59417 85500.00000 0 39827.054 -14521781.397 -20969010.012 10 0 59418 0.00000 0 1729288.038 -16362038.210 -19498628.745 10 0 59418 900.00000 0 3153516.569 -18159315.936 -17649755.110 10 0 59418 1800.00000 0 4300763.294 -19851015.325 -15458507.774 10 0 59418 2700.00000 0 5171667.277 -21375438.168 -12967585.942 10 0 59418 3600.00000 0 5778948.772 -22674316.409 -10225430.415 10 0 59418 4500.00000 0 6146595.904 -23695212.481 -7285278.668 10 0 59418 5400.00000 0 6308582.608 -24393692.004 -4204132.563 10 0 59418 6300.00000 0 6307173.612 -24735179.361 -1041658.516 10 0 59418 7200.00000 0 6190889.130 -24696420.114 2140958.876 10 0 59418 8100.00000 0 6012215.605 -24266490.586 5282188.329 10 0 59418 9000.00000 0 5825158.911 -23447313.615 8321326.802 10 0 59418 9900.00000 0 5682742.493 -22253659.769 11199656.271 10 0 59418 10800.00000 0 5634554.908 -20712634.280 13861561.398 10 0 59418 11700.00000 0 5724448.973 -18862670.783 16255588.007 10 0 59418 12600.00000 0 5988488.308 -16752072.993 18335423.328 10 0 59418 13500.00000 0 6453226.973 -14437163.569 20060780.539 10 0 59418 14400.00000 0 7134394.292 -11980115.282 21398171.700 10 0 59418 15300.00000 0 8036040.549 -9446552.512 22321554.994 10 0 59418 16200.00000 0 9150180.573 -6903020.394 22812844.201 10 0 59418 17100.00000 0 10456952.074 -4414424.485 22862270.520 10 0 59418 18000.00000 0 11925284.536 -2041545.422 22468589.058 10 0 59418 18900.00000 0 13514053.577 161269.657 21639124.856 10 0 59418 19800.00000 0 15173675.490 2148143.920 20389655.890 10 0 59418 20700.00000 0 16848078.073 3883351.286 18744133.307 10 0 59418 21600.00000 0 18476967.688 5342570.286 16734242.099 10 0 59418 22500.00000 0 19998299.369 6513658.243 14398808.473 10 0 59418 23400.00000 0 21350847.268 7396912.329 11783063.450 10 0 59418 24300.00000 0 22476767.566 8004805.549 8937775.352 10 0 59418 25200.00000 0 23324045.229 8361207.832 5918266.939 10 0 59418 26100.00000 0 23848719.991 8500124.535 2783336.021 10 0 59418 27000.00000 0 24016795.569 8464005.643 -405899.135 10 0 59418 27900.00000 0 23805749.170 8301697.887 -3587206.104 10 0 59418 28800.00000 0 23205575.117 8066127.771 -6698471.095 10 0 59418 29700.00000 0 22219316.462 7811815.676 -9678932.191 10 0 59418 30600.00000 0 20863060.493 7592328.780 -12470386.762 10 0 59418 31500.00000 0 19165397.473 7457783.343 -15018347.176 10 0 59418 32400.00000 0 17166365.196 7452504.755 -17273120.315 10 0 59418 33300.00000 0 14915924.258 7612946.726 -19190788.265 10 0 59418 34200.00000 0 12472029.202 7965959.410 -20734069.958 10 0 59418 35100.00000 0 9898377.794 8527480.822 -21873046.597 10 0 59418 36000.00000 0 7261934.083 9301707.272 -22585736.926 10 0 59418 36900.00000 0 4630330.121 10280777.565 -22858511.881 10 0 59418 37800.00000 0 2069255.596 11444983.520 -22686341.782 10 0 59418 38700.00000 0 -360055.612 12763496.830 -22072872.830 10 0 59418 39600.00000 0 -2603137.730 14195580.314 -21030333.090 10 0 59418 40500.00000 0 -4614309.287 15692231.358 -19579271.602 10 0 59418 41400.00000 0 -6358311.368 17198187.425 -17748137.302 10 0 59418 42300.00000 0 -7811502.227 18654208.610 -15572707.441 10 0 59418 43200.00000 0 -8962561.635 19999541.154 -13095377.798 10 0 59418 44100.00000 0 -9812678.840 21174458.697 -10364329.329 10 0 59418 45000.00000 0 -10375219.503 22122775.229 -7432588.037 10 0 59418 45900.00000 0 -10674888.545 22794225.378 -4356996.513 10 0 59418 46800.00000 0 -10746426.514 23146613.473 -1197116.958 10 0 59418 47700.00000 0 -10632895.995 23147642.700 1985913.415 10 0 59418 48600.00000 0 -10383631.249 22776349.094 5130553.137 10 0 59418 49500.00000 0 -10051937.734 22024081.489 8176031.776 10 0 59418 50400.00000 0 -9692638.043 20894987.275 11063508.108 10 0 59418 51300.00000 0 -9359566.809 19405983.972 13737190.200 10 0 59418 52200.00000 0 -9103118.939 17586217.605 16145397.278 10 0 59418 53100.00000 0 -8967953.104 15476029.636 18241544.242 10 0 59418 54000.00000 0 -8990946.035 13125474.067 19985031.296 10 0 59418 54900.00000 0 -9199482.902 10592444.448 21342022.703 10 0 59418 55800.00000 0 -9610155.391 7940486.394 22286100.460 10 0 59418 56700.00000 0 -10227922.672 5236383.937 22798780.738 10 0 59418 57600.00000 0 -11045771.630 2547617.389 22869883.075 10 0 59418 58500.00000 0 -12044892.514 -60204.002 22497744.528 10 0 59418 59400.00000 0 -13195364.998 -2525829.897 21689273.556 10 0 59418 60300.00000 0 -14457328.680 -4794675.280 20459840.920 10 0 59418 61200.00000 0 -15782591.649 -6820850.107 18833007.747 10 0 59418 62100.00000 0 -17116612.204 -8568827.839 16840093.811 10 0 59418 63000.00000 0 -18400772.610 -10014682.784 14519592.163 10 0 59418 63900.00000 0 -19574850.607 -11146843.568 11916439.479 10 0 59418 64800.00000 0 -20579585.204 -11966330.176 9081154.613 10 0 59418 65700.00000 0 -21359228.261 -12486463.532 6068861.010 10 0 59418 66600.00000 0 -21863972.958 -12732059.026 2938211.613 10 0 59418 67500.00000 0 -22052154.726 -12738137.714 -249762.510 10 0 59418 68400.00000 0 -21892129.246 -12548209.887 -3432856.442 10 0 59418 69300.00000 0 -21363745.576 -12212204.569 -6548923.433 10 0 59418 70200.00000 0 -20459349.703 -11784134.171 -9537108.662 10 0 59418 71100.00000 0 -19184274.026 -11319595.361 -12339058.464 10 0 59418 72000.00000 0 -17556790.633 -10873214.418 -14900079.096 10 0 59418 72900.00000 0 -15607529.559 -10496147.809 -17170220.473 10 0 59418 73800.00000 0 -13378386.364 -10233746.098 -19105262.157 10 0 59418 74700.00000 0 -10920965.597 -10123481.932 -20667581.199 10 0 59418 75600.00000 0 -8294626.393 -10193230.972 -21826884.575 10 0 59418 76500.00000 0 -5564213.280 -10459978.978 -22560792.077 10 0 59418 77400.00000 0 -2797568.361 -10929009.443 -22855259.011 10 0 59418 78300.00000 0 -62929.615 -11593605.287 -22704831.741 10 0 59418 79200.00000 0 2573675.765 -12435275.893 -22112732.584 10 0 59418 80100.00000 0 5050934.540 -13424498.350 -21090774.127 10 0 59418 81000.00000 0 7314543.822 -14521940.056 -19659106.417 10 0 59418 81900.00000 0 9319206.786 -15680109.729 -17845803.534 10 0 59418 82800.00000 0 11030246.780 -16845366.107 -15686299.137 10 0 59418 83700.00000 0 12424775.466 -17960199.090 -13222683.126 10 0 59418 84600.00000 0 13492369.362 -18965687.080 -10502873.966 10 0 59418 85500.00000 0 14235229.739 -19804027.402 -7579683.392 10 0 59419 0.00000 0 14667822.266 -20421034.122 -4509791.897 10 0 59419 900.00000 0 14816014.203 -20768499.048 -1352654.383 10 0 59419 1800.00000 0 14715747.607 -20806318.805 1830642.183 10 0 59419 2700.00000 0 14411305.458 -20504298.422 4978548.995 10 0 59419 3600.00000 0 13953244.723 -19843558.669 8030230.916 10 0 59419 4500.00000 0 13396083.010 -18817487.766 10926725.988 10 0 59419 5400.00000 0 12795835.704 -17432198.648 13612067.894 10 0 59419 6300.00000 0 12207506.102 -15706472.320 16034351.163 10 0 59419 7200.00000 0 11682632.802 -13671189.017 18146719.952 10 0 59419 8100.00000 0 11266996.122 -11368269.479 19908262.749 10 0 59419 9000.00000 0 10998578.765 -8849168.470 21284796.958 10 0 59419 9900.00000 0 10905865.646 -6172980.881 22249529.020 10 0 59419 10800.00000 0 11006554.078 -3404236.383 22783577.835 10 0 59419 11700.00000 0 11306728.936 -610471.428 22876351.353 10 0 59419 12600.00000 0 11800538.557 2140323.167 22525768.432 10 0 59419 13500.00000 0 12470386.806 4782275.444 21738320.591 10 0 59419 14400.00000 0 13287635.441 7254121.227 20528970.850 10 0 59419 15300.00000 0 14213789.801 9501506.370 18920889.627 10 0 59419 16200.00000 0 15202120.450 11479006.965 16945030.653 10 0 59419 17100.00000 0 16199654.718 13151783.144 14639552.837 10 0 59419 18000.00000 0 17149455.918 14496796.563 12049097.348 10 0 59419 18900.00000 0 17993095.008 15503539.602 9223932.216 10 0 59419 19800.00000 0 18673210.427 16174244.503 6218979.990 10 0 59419 20700.00000 0 19136047.102 16523562.548 3092746.940 10 0 59419 21600.00000 0 19333865.627 16577726.126 -93825.088 10 0 59419 22500.00000 0 19227117.488 16373228.905 -3278560.889 10 0 59419 23400.00000 0 18786291.693 15955080.327 -6399283.082 10 0 59419 24300.00000 0 17993352.037 15374709.462 -9395046.341 10 0 59419 25200.00000 0 16842701.776 14687608.657 -12207348.359 10 0 59419 26100.00000 0 15341632.984 13950818.934 -14781291.618 10 0 59419 27000.00000 0 13510240.285 13220365.931 -17066671.314 10 0 59419 27900.00000 0 11380801.882 12548757.191 -19018966.615 10 0 59419 28800.00000 0 8996653.991 11982648.617 -20600214.719 10 0 59419 29700.00000 0 6410606.502 11560780.129 -21779750.290 10 0 59419 30600.00000 0 3682967.142 11312268.431 -22534795.934 10 0 59419 31500.00000 0 879258.016 11255328.913 -22850892.946 10 0 59419 32400.00000 0 -1932279.232 11396479.822 -22722165.105 10 0 59419 33300.00000 0 -4683284.887 11730260.897 -22151411.922 10 0 59419 34200.00000 0 -7307880.697 12239476.539 -21150031.222 10 0 59419 35100.00000 0 -9745159.782 12895951.270 -19737774.336 10 0 59419 36000.00000 0 -11941464.451 13661763.716 -17942340.330 10 0 59419 36900.00000 0 -13852358.933 14490905.399 -15798818.661 10 0 59419 37800.00000 0 -15444217.265 15331293.123 -13348992.332 10 0 59419 38700.00000 0 -16695363.020 16127049.398 -10640515.947 10 0 59419 39600.00000 0 -17596716.274 16820954.522 -7725985.280 10 0 59419 40500.00000 0 -18151923.854 17356967.343 -4661916.647 10 0 59419 41400.00000 0 -18376970.217 17682709.198 -1507655.734 10 0 59419 42300.00000 0 -18299287.580 17751807.542 1675763.239 10 0 59419 43200.00000 0 -17956404.449 17526001.807 4826786.691 10 0 59419 44100.00000 0 -17394190.325 16976924.132 7884517.506 10 0 59419 45000.00000 0 -16664770.677 16087481.136 10789875.860 10 0 59419 45900.00000 0 -15824199.489 14852779.324 13486724.017 10 0 59419 46800.00000 0 -14929986.267 13280555.399 15922934.824 10 0 59419 47700.00000 0 -14038580.125 11391092.930 18051384.683 10 0 59419 48600.00000 0 -13202915.121 9216627.630 19830853.269 10 0 59419 49500.00000 0 -12470118.425 6800264.120 21226813.857 10 0 59419 50400.00000 0 -11879476.285 4194446.999 22212099.816 10 0 59419 51300.00000 0 -11460742.346 1459046.983 22767434.956 10 0 59419 52200.00000 0 -11232859.069 -1340861.359 22881817.451 10 0 59419 53100.00000 0 -11203146.346 -4137440.781 22552749.347 10 0 59419 54000.00000 0 -11366992.446 -6862652.803 21786306.155 10 0 59419 54900.00000 0 -11708061.906 -9450835.205 20597043.581 10 0 59419 55800.00000 0 -12199013.670 -11841189.911 19007741.262 10 0 59419 56700.00000 0 -12802701.459 -13980078.586 17048986.280 10 0 59419 57600.00000 0 -13473807.932 -15823030.421 14758602.302 10 0 59419 58500.00000 0 -14160845.454 -17336377.647 12180933.402 10 0 59419 59400.00000 0 -14808440.175 -18498449.393 9365994.780 10 0 59419 60300.00000 0 -15359803.271 -19300272.553 6368505.701 10 0 59419 61200.00000 0 -15759284.332 -19745748.844 3246823.055 10 0 59419 62100.00000 0 -15954897.526 -19851299.574 61796.489 10 0 59419 63000.00000 0 -15900711.549 -19644992.471 -3124431.700 10 0 59419 63900.00000 0 -15558999.640 -19165187.389 -6249656.881 10 0 59419 64800.00000 0 -14902055.886 -18458758.812 -9252846.723 10 0 59419 65700.00000 0 -13913598.247 -17578971.643 -12075353.838 10 0 59419 66600.00000 0 -12589696.671 -16583101.947 -14662080.469 10 0 59419 67500.00000 0 -10939185.208 -15529905.477 -16962570.509 10 0 59419 68400.00000 0 -8983539.612 -14477043.202 -18932005.890 10 0 59419 69300.00000 0 -6756225.066 -13478574.695 -20532086.751 10 0 59419 70200.00000 0 -4301541.623 -12582626.747 -21731777.743 10 0 59419 71100.00000 0 -1673016.324 -11829336.520 -22507906.041 10 0 59419 72000.00000 0 1068589.711 -11249156.116 -22845600.066 10 0 59419 72900.00000 0 3857574.982 -10861589.361 -22738561.559 10 0 59419 73800.00000 0 6625795.662 -10674412.665 -22189167.210 10 0 59419 74700.00000 0 9305263.332 -10683410.862 -21208399.548 10 0 59419 75600.00000 0 11830734.399 -10872636.893 -19815610.209 10 0 59419 76500.00000 0 14142184.109 -11215182.010 -18038121.851 10 0 59419 77400.00000 0 16187063.449 -11674421.814 -15910677.957 10 0 59419 78300.00000 0 17922246.944 -12205683.697 -13474752.493 10 0 59419 79200.00000 0 19315592.609 -12758263.963 -10777733.702 10 0 59419 80100.00000 0 20347051.662 -13277708.741 -7871998.578 10 0 59419 81000.00000 0 21009284.549 -13708262.214 -4813896.215 10 0 59419 81900.00000 0 21307760.300 -13995379.245 -1662659.644 10 0 59419 82800.00000 0 21260337.433 -14088197.179 1520733.027 10 0 59419 83700.00000 0 20896345.964 -13941863.695 4674726.864 10 0 59419 84600.00000 0 20255210.326 -13519623.767 7738366.074 10 0 59419 85500.00000 0 19384671.597 -12794578.988 10652456.040 10 0 59420 0.00000 0 18338683.563 -11751046.117 13360690.301 10 0 59420 900.00000 0 17175070.243 -10385457.611 15810722.500 10 0 59420 1800.00000 0 15953041.747 -8706767.447 17955163.191 10 0 59420 2700.00000 0 14730671.616 -6736342.129 19752484.757 10 0 59420 3600.00000 0 13562439.038 -4507341.846 21167817.445 10 0 59420 4500.00000 0 12496937.977 -2063614.022 22173622.247 10 0 59420 5400.00000 0 11574847.627 541856.877 22750228.187 10 0 59420 6300.00000 0 10827248.514 3248882.044 22886223.603 10 0 59420 7200.00000 0 10274354.577 5992306.193 22578693.338 10 0 59420 8100.00000 0 9924714.805 8704460.572 21833296.194 10 0 59420 9000.00000 0 9774918.895 11317731.773 20664179.600 10 0 59420 9900.00000 0 9809820.817 13767141.359 19093731.203 10 0 59420 10800.00000 0 10003272.638 15992830.217 17152170.038 10 0 59420 11700.00000 0 10319339.583 17942344.562 14876982.947 10 0 59420 12600.00000 0 10713946.750 19572627.765 12312215.176 10 0 59420 13500.00000 0 11136889.225 20851633.838 9507627.198 10 0 59420 14400.00000 0 11534121.191 21759493.615 6517732.968 10 0 59420 15300.00000 0 11850226.994 22289183.095 3400737.825 10 0 59420 16200.00000 0 12030968.546 22446664.451 217396.954 10 0 59420 17100.00000 0 12025799.347 22250492.658 -2970182.579 10 0 59420 18000.00000 0 11790236.259 21730903.779 -6099771.224 10 0 59420 18900.00000 0 11287985.850 20928423.543 -9110251.912 10 0 59420 19800.00000 0 10492732.396 19892055.796 -11942834.346 10 0 59420 20700.00000 0 9389509.318 18677128.808 -14542222.559 10 0 59420 21600.00000 0 7975593.844 17342892.312 -16857711.000 10 0 59420 22500.00000 0 6260885.500 15949968.819 -18844186.077 10 0 59420 23400.00000 0 4267751.573 14557768.858 -20463012.432 10 0 59420 24300.00000 0 2030345.720 13221980.816 -21682786.136 10 0 59420 25200.00000 0 -406571.402 11992242.288 -22479940.216 10 0 59420 26100.00000 0 -2989259.321 10910091.429 -22839191.344 10 0 59420 27000.00000 0 -5657003.817 10007284.077 -22753820.127 10 0 59420 27900.00000 0 -8344417.239 9304546.218 -22225781.062 10 0 59420 28800.00000 0 -10983936.381 8810812.398 -21265641.671 10 0 59420 29700.00000 0 -13508413.618 8522979.680 -19892353.812 10 0 59420 30600.00000 0 -15853693.660 8426184.791 -18132863.246 10 0 59420 31500.00000 0 -17961069.416 8494590.159 -16021566.627 10 0 59420 32400.00000 0 -19779516.168 8692643.190 -13599627.690 10 0 59420 33300.00000 0 -21267612.912 8976753.679 -10914166.852 10 0 59420 34200.00000 0 -22395073.009 9297317.141 -8017340.640 10 0 59420 35100.00000 0 -23143822.872 9600997.842 -4965329.059 10 0 59420 36000.00000 0 -23508586.169 9833174.956 -1817250.459 10 0 59420 36900.00000 0 -23496951.464 9940448.981 1365975.349 10 0 59420 37800.00000 0 -23128922.502 9873103.421 4522794.407 10 0 59420 38700.00000 0 -22435971.451 9587418.932 7592194.729 10 0 59420 39600.00000 0 -21459635.595 9047743.522 10514869.536 10 0 59420 40500.00000 0 -20249716.464 8228232.526 13234346.487 10 0 59420 41400.00000 0 -18862156.346 7114185.758 15698062.594 10 0 59420 42300.00000 0 -17356680.079 5702925.728 17858365.413 10 0 59420 43200.00000 0 -15794299.362 4004179.461 19673422.679 10 0 59420 44100.00000 0 -14234782.269 2039946.568 21108024.033 10 0 59420 45000.00000 0 -12734192.054 -156142.889 22134260.230 10 0 59420 45900.00000 0 -11342596.564 -2539956.579 22732067.291 10 0 59420 46800.00000 0 -10102042.731 -5058430.168 22889625.112 10 0 59420 47700.00000 0 -9044880.145 -7651517.475 22603602.304 10 0 59420 48600.00000 0 -8192503.642 -10254442.525 21879241.504 10 0 59420 49500.00000 0 -7554567.951 -12800162.742 20730281.980 10 0 59420 50400.00000 0 -7128708.303 -15221942.989 19178719.083 10 0 59420 51300.00000 0 -6900780.039 -17455934.908 17254403.076 10 0 59420 52200.00000 0 -6845608.656 -19443654.851 14994482.864 10 0 59420 53100.00000 0 -6928220.241 -21134256.834 12442703.387 10 0 59420 54000.00000 0 -7105501.562 -22486504.757 9648568.599 10 0 59420 54900.00000 0 -7328220.415 -23470359.909 6666385.064 10 0 59420 55800.00000 0 -7543320.821 -24068115.428 3554204.274 10 0 59420 56700.00000 0 -7696395.133 -24275028.309 372684.435 10 0 59420 57600.00000 0 -7734226.851 -24099420.813 -2816105.309 10 0 59420 58500.00000 0 -7607294.200 -23562245.883 -5949913.329 10 0 59420 59400.00000 0 -7272125.761 -22696134.485 -8967540.814 10 0 59420 60300.00000 0 -6693405.498 -21543965.292 -11810057.634 10 0 59420 61200.00000 0 -5845735.294 -20157018.048 -14421972.738 10 0 59420 62100.00000 0 -4714977.947 -18592790.042 -16752334.211 10 0 59420 63000.00000 0 -3299121.926 -16912569.655 -18755735.875 10 0 59420 63900.00000 0 -1608630.082 -15178871.244 -20393209.541 10 0 59420 64800.00000 0 333743.033 -13452841.167 -21632985.008 10 0 59420 65700.00000 0 2493657.641 -11791745.421 -22451103.025 10 0 59420 66600.00000 0 4826388.849 -10246645.230 -22831869.889 10 0 59420 67500.00000 0 7278469.378 -8860358.102 -22768145.957 10 0 59420 68400.00000 0 9789705.324 -7665789.009 -22261463.921 10 0 59420 69300.00000 0 12295479.878 -6684700.048 -21321976.239 10 0 59420 70200.00000 0 14729248.366 -5926967.850 -19968234.491 10 0 59420 71100.00000 0 17025120.511 -5390357.078 -18226806.646 10 0 59420 72000.00000 0 19120422.550 -5060816.577 -16131741.203 10 0 59420 72900.00000 0 20958133.441 -4913282.738 -13723889.925 10 0 59420 73800.00000 0 22489095.042 -4912953.633 -11050103.225 10 0 59420 74700.00000 0 23673905.895 -5016978.117 -8162314.561 10 0 59420 75600.00000 0 24484421.809 -5176487.176 -5116531.871 10 0 59420 76500.00000 0 24904802.841 -5338880.958 -1971755.529 10 0 59420 77400.00000 0 24932065.127 -5450274.867 1211156.430 10 0 59420 78300.00000 0 24576116.474 -5458001.818 4370654.600 10 0 59420 79200.00000 0 23859275.738 -5313065.917 7445674.324 10 0 59420 80100.00000 0 22815297.091 -4972445.070 10376799.993 10 0 59420 81000.00000 0 21487940.349 -4401146.541 13107396.392 10 0 59420 81900.00000 0 19929146.819 -3573929.674 15584686.707 10 0 59420 82800.00000 0 18196896.095 -2476623.747 17760757.748 10 0 59420 83700.00000 0 16352831.897 -1106985.407 19593474.471 10 0 59420 84600.00000 0 14459754.393 524941.223 21047287.347 10 0 59420 85500.00000 0 12579081.796 2396978.381 22093917.891 99